MAYA-3

Last updated on Sat Aug 06 2022 00:02:08 GMT+0000 (Coordinated Universal Time)

1 49273U 98067SS 22215.96002646 .06228653 12264-4 79627-3 0 9995 2 49273 51.6125 65.8665 0012195 274.8712 85.0920 16.34785799 47309

Satellite not in orbit